• In Romania
  • List of Countries
  • For 7 days
  • Water Temperature
  • Satellite Maps
  • Weather Map
  • Weather Widgets
  • user-avatar
    Login

    Hourly Weather Salta

    Today, 21 January, Sunday

    Time Temperature Precipitation Wind Pressure Humidity
    00:00 +20°C° 0 mm 1 mps 649 mmHg 83%
    01:00 +19°C° 0 mm 1 mps 649 mmHg 84%
    02:00 +19°C° 0 mm 1 mps 649 mmHg 84%
    03:00 +19°C° 0 mm 1 mps 649 mmHg 84%
    04:00 +19°C° 0 mm 1 mps 648 mmHg 84%
    05:00 +19°C° 0 mm 1 mps 648 mmHg 83%
    06:00 +20°C° 0 mm 1 mps 649 mmHg 78%
    07:00 +22°C° 0 mm 1 mps 649 mmHg 72%
    08:00 +23°C° 0 mm 1 mps 650 mmHg 66%
    09:00 +25°C° 0 mm 1 mps 650 mmHg 61%
    10:00 +27°C° 0 mm 2 mps 650 mmHg 55%
    11:00 +29°C° 0 mm 2 mps 650 mmHg 50%
    12:00 +28°C° 0.1 mm 3 mps 650 mmHg 53%
    13:00 +28°C° 0.1 mm 3 mps 649 mmHg 55%
    14:00 +28°C° 0.1 mm 3 mps 648 mmHg 58%
    15:00 +27°C° 0.1 mm 3 mps 647 mmHg 61%
    16:00 +27°C° 0.1 mm 3 mps 647 mmHg 64%
    17:00 +26°C° 0.1 mm 2 mps 646 mmHg 67%
    18:00 +25°C° 0.1 mm 2 mps 647 mmHg 74%
    19:00 +24°C° 0.1 mm 1 mps 647 mmHg 80%
    20:00 +22°C° 0.1 mm 1 mps 647 mmHg 86%
    21:00 +22°C° 0.1 mm 1 mps 647 mmHg 87%
    22:00 +22°C° 0.1 mm 1 mps 648 mmHg 87%
    23:00 +22°C° 0.1 mm 1 mps 648 mmHg 87%

    Tomorrow, 22 January, Monday

    Time Temperature Precipitation Wind Pressure Humidity
    00:00 +21°C° 0 mm 1 mps 648 mmHg 86%
    01:00 +21°C° 0 mm 1 mps 647 mmHg 86%
    02:00 +21°C° 0 mm 1 mps 647 mmHg 85%
    03:00 +21°C° 0 mm 1 mps 647 mmHg 85%
    04:00 +20°C° 0 mm 1 mps 647 mmHg 85%
    05:00 +20°C° 0 mm 1 mps 646 mmHg 84%
    06:00 +21°C° 0 mm 1 mps 647 mmHg 79%
    07:00 +23°C° 0 mm 1 mps 648 mmHg 75%
    08:00 +24°C° 0 mm 1 mps 649 mmHg 70%
    09:00 +26°C° 0 mm 1 mps 649 mmHg 64%
    10:00 +27°C° 0 mm 2 mps 649 mmHg 59%
    11:00 +29°C° 0 mm 2 mps 649 mmHg 54%
    12:00 +29°C° 0.1 mm 2 mps 648 mmHg 55%
    13:00 +29°C° 0.1 mm 2 mps 648 mmHg 56%
    14:00 +29°C° 0.1 mm 2 mps 647 mmHg 57%
    15:00 +29°C° 0.1 mm 2 mps 646 mmHg 59%
    16:00 +28°C° 0.1 mm 2 mps 646 mmHg 61%
    17:00 +28°C° 0.1 mm 2 mps 645 mmHg 64%
    18:00 +26°C° 0.2 mm 2 mps 646 mmHg 71%
    19:00 +25°C° 0.2 mm 1 mps 646 mmHg 78%
    20:00 +23°C° 0.2 mm 1 mps 646 mmHg 85%
    21:00 +23°C° 0.1 mm 1 mps 646 mmHg 85%
    22:00 +23°C° 0.1 mm 1 mps 647 mmHg 86%
    23:00 +22°C° 0.1 mm 1 mps 647 mmHg 87%

    Day after tomorrow, 23 January, Tuesday

    Time Temperature Precipitation Wind Pressure Humidity
    00:00 +22°C° 0.3 mm 1 mps 647 mmHg 86%
    01:00 +22°C° 0.3 mm 1 mps 646 mmHg 85%
    02:00 +22°C° 0.3 mm 1 mps 646 mmHg 84%
    03:00 +21°C° 0.1 mm 1 mps 646 mmHg 84%
    04:00 +21°C° 0.1 mm 1 mps 646 mmHg 83%
    05:00 +21°C° 0.1 mm 1 mps 646 mmHg 83%
    06:00 +22°C° 0 mm 1 mps 647 mmHg 78%
    07:00 +24°C° 0 mm 1 mps 648 mmHg 73%
    08:00 +25°C° 0 mm 1 mps 648 mmHg 68%
    09:00 +27°C° 0 mm 1 mps 649 mmHg 61%
    10:00 +29°C° 0 mm 2 mps 649 mmHg 54%
    11:00 +31°C° 0 mm 2 mps 649 mmHg 48%
    12:00 +31°C° 0.4 mm 2 mps 649 mmHg 48%
    13:00 +33°C° 0.4 mm 3 mps 648 mmHg 49%
    14:00 +33°C° 0.4 mm 3 mps 647 mmHg 50%
    15:00 +31°C° 1.5 mm 3 mps 647 mmHg 53%
    16:00 +30°C° 1.5 mm 3 mps 647 mmHg 57%
    17:00 +29°C° 1.5 mm 3 mps 646 mmHg 60%
    18:00 +28°C° 1.3 mm 2 mps 646 mmHg 69%
    19:00 +26°C° 1.3 mm 2 mps 647 mmHg 77%
    20:00 +24°C° 1.3 mm 1 mps 647 mmHg 86%
    21:00 +23°C° 0.5 mm 1 mps 647 mmHg 85%
    22:00 +23°C° 0.5 mm 1 mps 648 mmHg 85%
    23:00 +23°C° 0.5 mm 1 mps 648 mmHg 85%

    24 January, Wednesday

    Time Temperature Precipitation Wind Pressure Humidity
    00:00 +23°C° 0.6 mm 1 mps 648 mmHg 84%
    01:00 +22°C° 0.6 mm 1 mps 648 mmHg 83%
    02:00 +22°C° 0.6 mm 1 mps 648 mmHg 83%
    03:00 +22°C° 0 mm 1 mps 648 mmHg 81%
    04:00 +22°C° 0 mm 1 mps 647 mmHg 79%
    05:00 +22°C° 0 mm 1 mps 647 mmHg 77%
    06:00 +23°C° 0 mm 1 mps 648 mmHg 74%
    07:00 +24°C° 0 mm 1 mps 649 mmHg 70%
    08:00 +25°C° 0 mm 1 mps 650 mmHg 66%
    09:00 +27°C° 0.1 mm 1 mps 651 mmHg 61%
    10:00 +28°C° 0.1 mm 2 mps 651 mmHg 56%
    11:00 +30°C° 0.1 mm 2 mps 651 mmHg 50%
    12:00 +30°C° 0.3 mm 3 mps 651 mmHg 50%
    13:00 +30°C° 0.3 mm 3 mps 651 mmHg 50%
    14:00 +32°C° 0.3 mm 4 mps 650 mmHg 49%
    15:00 +29°C° 1.3 mm 4 mps 650 mmHg 56%
    16:00 +28°C° 1.3 mm 3 mps 649 mmHg 63%
    17:00 +27°C° 1.3 mm 3 mps 649 mmHg 70%
    18:00 +25°C° 1.2 mm 2 mps 649 mmHg 76%
    19:00 +24°C° 1.2 mm 2 mps 650 mmHg 81%
    20:00 +22°C° 1.2 mm 1 mps 650 mmHg 86%
    21:00 +22°C° 0.3 mm 1 mps 650 mmHg 85%
    22:00 +22°C° 0.3 mm 1 mps 651 mmHg 84%
    23:00 +22°C° 0.3 mm 1 mps 651 mmHg 83%

    25 January, Thursday

    Time Temperature Precipitation Wind Pressure Humidity
    00:00 +22°C° 0.4 mm 1 mps 651 mmHg 83%
    01:00 +21°C° 0.4 mm 1 mps 651 mmHg 83%
    02:00 +21°C° 0.4 mm 1 mps 651 mmHg 82%
    03:00 +21°C° 0.1 mm 1 mps 651 mmHg 82%
    04:00 +21°C° 0.1 mm 1 mps 650 mmHg 83%
    05:00 +21°C° 0.1 mm 1 mps 650 mmHg 83%
    06:00 +22°C° 0.1 mm 1 mps 651 mmHg 80%
    07:00 +22°C° 0.1 mm 1 mps 651 mmHg 78%
    08:00 +23°C° 0.1 mm 1 mps 652 mmHg 76%
    09:00 +24°C° 0.1 mm 2 mps 652 mmHg 73%
    10:00 +24°C° 0.1 mm 2 mps 652 mmHg 70%
    11:00 +25°C° 0.1 mm 2 mps 652 mmHg 68%
    12:00 +25°C° 0.4 mm 2 mps 651 mmHg 70%
    13:00 +25°C° 0.4 mm 2 mps 651 mmHg 72%
    14:00 +25°C° 0.4 mm 2 mps 650 mmHg 74%
    15:00 +25°C° 0.2 mm 2 mps 650 mmHg 71%
    16:00 +26°C° 0.2 mm 2 mps 649 mmHg 69%
    17:00 +27°C° 0.2 mm 2 mps 649 mmHg 67%
    18:00 +25°C° 0.2 mm 2 mps 649 mmHg 74%
    19:00 +23°C° 0.2 mm 1 mps 649 mmHg 81%
    20:00 +22°C° 0.2 mm 1 mps 649 mmHg 88%
    21:00 +22°C° 0.1 mm 1 mps 649 mmHg 89%
    22:00 +19°C° 0.1 mm 0 mps 649 mmHg 89%
    23:00 +19°C° 0.1 mm 0 mps 650 mmHg 90%

    26 January, Friday

    Time Temperature Precipitation Wind Pressure Humidity
    00:00 +19°C° 0 mm 0 mps 649 mmHg 89%
    01:00 +19°C° 0 mm 0 mps 649 mmHg 89%
    02:00 +19°C° 0 mm 0 mps 648 mmHg 89%
    03:00 +19°C° 0 mm 0 mps 648 mmHg 89%
    04:00 +18°C° 0 mm 0 mps 648 mmHg 90%
    05:00 +18°C° 0 mm 0 mps 648 mmHg 90%
    06:00 +21°C° 0 mm 1 mps 649 mmHg 85%
    07:00 +23°C° 0 mm 1 mps 649 mmHg 79%
    08:00 +24°C° 0 mm 1 mps 650 mmHg 74%
    09:00 +25°C° 0 mm 1 mps 650 mmHg 68%
    10:00 +27°C° 0 mm 2 mps 650 mmHg 62%
    11:00 +28°C° 0 mm 2 mps 650 mmHg 56%
    12:00 +29°C° 0.1 mm 3 mps 649 mmHg 54%
    13:00 +30°C° 0.1 mm 3 mps 649 mmHg 51%
    14:00 +31°C° 0.1 mm 3 mps 648 mmHg 48%
    15:00 +30°C° 0.2 mm 3 mps 648 mmHg 52%
    16:00 +30°C° 0.2 mm 3 mps 647 mmHg 55%
    17:00 +29°C° 0.2 mm 3 mps 646 mmHg 58%
    18:00 +27°C° 0.2 mm 2 mps 646 mmHg 66%
    19:00 +26°C° 0.2 mm 2 mps 646 mmHg 74%
    20:00 +24°C° 0.2 mm 1 mps 646 mmHg 81%
    21:00 +23°C° 0.1 mm 1 mps 647 mmHg 83%
    22:00 +23°C° 0.1 mm 1 mps 647 mmHg 85%
    23:00 +23°C° 0.1 mm 1 mps 647 mmHg 87%
    Show more